Location: Kershaw
(34.5481°N, 80.5823°W)
Time: 16:57:13
(UTC+00:00)

Vanguard 1 Rocket - Pass Details

Date: 30 September 2022
Orbit: 650 x 4225 km, 34.3° (Epoch: 08 December)

Event Time Altitude Azimuth Distance (km) Brightness Sun altitude
Rises 04:00:08 0° 266° (W) 6,892 12.1 -54.1°
Reaches altitude 10° 04:05:31 10° 267° (W) 5,302 11.4 -54.6°
Enters shadow 04:10:54 25° 268° (W) 3,614 10.4 -55.2°
Maximum altitude 04:19:05 89° 181° (S) 1,489 - -55.9°
Drops below altitude 10° 04:25:50 10° 91° (E) 2,794 - -56.4°
Sets 04:27:51 0° 91° (E) 3,520 - -56.6°
